Home > Weather > Besançon > Past weeks

Flag for France Weather for the Past 2 Weeks in Besançon, Franche-Comté, France

Now
43 °F

Clear.


Feels Like: 43 °F
Forecast: 39 / 60 °F
Wind: No wind

Location: Dole Tavaux

Current Time: May 3, 2016 at 3:16:29 AM

Latest Report: May 3, 2016 at 2:30 AM


Visibility: 10 mi

Pressure: 30.18 "Hg

Humidity: 93%

Dew Point: 41 °F

Location of BesançonLocation

Historic Weather in Besançon — Graph

°F

Besançon Temperature Yesterday

Maximum temperature yesterday: 66 °F (at 3:30 PM)
Minimum temperature yesterday: 39 °F (at 6:00 AM)
Average temperature yesterday: 53 °F

High & Low Weather Summary for the Past Weeks

 TemperatureHumidityPressure
High72 °F (Apr 21, 4:30 PM)100% (Apr 18, 6:00 AM)30.30 "Hg (Apr 18, 6:00 AM)
Low30 °F (Apr 27, 7:00 AM)38% (Apr 27, 7:30 PM)29.71 "Hg (Apr 26, 5:00 PM)
Average48 °F77%30.05 "Hg
* Reported Apr 18 2:00 AM — May 3 2:00 AM, Besançon, Weather by CustomWeather, © 2016

Note: Actual official high and low records may vary slightly from our data, if they occured in-between our weather recording intervals... More about our weather records

Advertising

Besançon Weather History for the Previous 24 Hours

Scroll right to see more
 ConditionsComfort  
Time TempWeatherWind HumidityBarometerVisibility
2:00 AM
Tue, May 3
45 °FClear.2 mph93%30.18 "Hg10 mi
1:30 AM45 °FPassing clouds.3 mph87%30.18 "HgN/A
1:00 AM45 °FClear.No wind87%30.18 "Hg10 mi
12:30 AM48 °FClear.3 mph82%30.18 "Hg10 mi
12:00 AM50 °FPassing clouds.6 mph82%30.18 "HgN/A
11:00 PM
Mon, May 2
52 °FClear.7 mph77%30.15 "Hg10 mi
10:30 PM54 °FSunny.10 mph72%30.15 "Hg10 mi
10:00 PM55 °FPassing clouds.9 mph67%30.15 "HgN/A
9:30 PM55 °FSunny.9 mph72%30.15 "Hg10 mi
9:00 PM57 °FSunny.7 mph63%30.12 "Hg10 mi
8:30 PM57 °FSunny.5 mph63%30.12 "Hg10 mi
8:00 PM59 °FSunny.6 mph59%30.12 "Hg10 mi
7:30 PM61 °FSunny.7 mph55%30.12 "Hg10 mi
7:00 PM64 °FSunny.9 mph49%30.12 "Hg10 mi
6:30 PM63 °FPassing clouds.9 mph52%30.12 "HgN/A
6:00 PM66 °FPassing clouds.10 mph46%30.12 "HgN/A
5:30 PM66 °FPassing clouds.9 mph46%30.12 "HgN/A
5:00 PM64 °FSunny.13 mph49%30.12 "Hg10 mi
4:30 PM66 °FPassing clouds.13 mph49%30.12 "HgN/A
4:00 PM66 °FPassing clouds.14 mph49%30.12 "HgN/A
3:30 PM66 °FPassing clouds.12 mph56%30.15 "HgN/A
3:00 PM64 °FPassing clouds.15 mph52%30.15 "HgN/A
2:30 PM64 °FPassing clouds.14 mph56%30.15 "HgN/A
2:00 PM63 °FPassing clouds.13 mph64%30.15 "HgN/A
1:30 PM61 °FPassing clouds.10 mph68%30.18 "HgN/A
1:00 PM59 °FPassing clouds.10 mph72%30.18 "HgN/A
12:30 PM59 °FClear.10 mph72%30.18 "Hg5 mi
12:00 PM55 °FPassing clouds.8 mph77%30.18 "Hg5 mi
11:30 AM54 °FScattered clouds.9 mph77%30.21 "Hg5 mi
11:00 AM52 °FPassing clouds.7 mph82%30.21 "Hg4 mi
10:30 AM50 °FOvercast.7 mph88%30.21 "HgN/A
10:00 AM48 °FPartly sunny.8 mph87%30.21 "HgN/A
9:30 AM48 °FPartly sunny.9 mph87%30.21 "HgN/A
9:00 AM46 °FPartly sunny.7 mph93%30.21 "HgN/A
8:30 AM45 °FPassing clouds.8 mph87%30.21 "HgN/A
7:00 AM41 °FClear.6 mph93%30.21 "Hg10 mi
6:30 AM39 °FClear.5 mph93%30.21 "Hg10 mi
6:00 AM39 °FClear.6 mph100%30.21 "Hg6 mi
5:30 AM41 °FClear.6 mph93%30.21 "Hg10 mi
4:30 AM43 °FClear.5 mph93%30.21 "Hg10 mi
4:00 AM43 °FPassing clouds.5 mph93%30.21 "HgN/A
3:30 AM43 °FClear.7 mph93%30.21 "Hg10 mi
3:00 AM43 °FMostly cloudy.2 mph93%30.21 "HgN/A
Weather by CustomWeather, © 2016

See weather overviewHow to use our weather pages